• In Uzbekistan
  • List of Countries
  • For 7 days
  • Water Temperature
  • Satellite Maps
  • Weather Map
  • Weather Widgets
  • user-avatar
    Login

    Hourly Weather Idzhewan

    Today, 24 May, Wednesday

    Time Temperature Precipitation Wind Pressure Humidity
    00:00 +11°C° 0 mm 1 mps 690 mmHg 84%
    01:00 +11°C° 0.1 mm 1 mps 690 mmHg 85%
    02:00 +11°C° 0.1 mm 1 mps 690 mmHg 86%
    03:00 +11°C° 0.1 mm 1 mps 690 mmHg 87%
    04:00 +12°C° 0.7 mm 1 mps 690 mmHg 87%
    05:00 +12°C° 0.7 mm 1 mps 690 mmHg 87%
    06:00 +13°C° 0.7 mm 1 mps 690 mmHg 87%
    07:00 +14°C° 0.5 mm 1 mps 690 mmHg 84%
    08:00 +15°C° 0.5 mm 1 mps 690 mmHg 80%
    09:00 +16°C° 0.5 mm 1 mps 691 mmHg 77%
    10:00 +18°C° 0.5 mm 1 mps 691 mmHg 75%
    11:00 +18°C° 0.5 mm 1 mps 690 mmHg 74%
    12:00 +18°C° 0.5 mm 2 mps 690 mmHg 72%
    13:00 +17°C° 0.7 mm 2 mps 690 mmHg 74%
    14:00 +17°C° 0.7 mm 2 mps 690 mmHg 75%
    15:00 +17°C° 0.7 mm 2 mps 690 mmHg 77%
    16:00 +16°C° 0.2 mm 2 mps 690 mmHg 78%
    17:00 +16°C° 0.2 mm 2 mps 691 mmHg 79%
    18:00 +16°C° 0.2 mm 2 mps 691 mmHg 80%
    19:00 +15°C° 0 mm 2 mps 691 mmHg 82%
    20:00 +13°C° 0 mm 2 mps 691 mmHg 85%
    21:00 +12°C° 0 mm 2 mps 692 mmHg 88%
    22:00 +11°C° 0 mm 1 mps 692 mmHg 88%
    23:00 +11°C° 0 mm 1 mps 692 mmHg 88%

    Tomorrow, 25 May, Thursday

    Time Temperature Precipitation Wind Pressure Humidity
    00:00 +10°C° 0 mm 1 mps 692 mmHg 89%
    01:00 +10°C° 0 mm 1 mps 692 mmHg 89%
    02:00 +10°C° 0 mm 1 mps 692 mmHg 89%
    03:00 +9°C° 0 mm 1 mps 692 mmHg 89%
    04:00 +10°C° 0 mm 1 mps 692 mmHg 86%
    05:00 +11°C° 0 mm 1 mps 692 mmHg 83%
    06:00 +12°C° 0 mm 1 mps 693 mmHg 80%
    07:00 +14°C° 0 mm 1 mps 693 mmHg 71%
    08:00 +18°C° 0 mm 1 mps 693 mmHg 62%
    09:00 +20°C° 0 mm 1 mps 694 mmHg 52%
    10:00 +20°C° 0.1 mm 2 mps 693 mmHg 48%
    11:00 +21°C° 0.1 mm 2 mps 693 mmHg 45%
    12:00 +23°C° 0.1 mm 2 mps 693 mmHg 41%
    13:00 +23°C° 0.1 mm 2 mps 693 mmHg 42%
    14:00 +23°C° 0.1 mm 2 mps 693 mmHg 43%
    15:00 +23°C° 0.1 mm 2 mps 693 mmHg 44%
    16:00 +22°C° 0.2 mm 1 mps 693 mmHg 50%
    17:00 +21°C° 0.2 mm 1 mps 693 mmHg 57%
    18:00 +21°C° 0.2 mm 1 mps 693 mmHg 63%
    19:00 +18°C° 0 mm 1 mps 693 mmHg 70%
    20:00 +14°C° 0 mm 1 mps 693 mmHg 76%
    21:00 +11°C° 0 mm 1 mps 693 mmHg 83%
    22:00 +11°C° 0 mm 1 mps 693 mmHg 84%
    23:00 +11°C° 0 mm 1 mps 693 mmHg 84%

    Day after tomorrow, 26 May, Friday

    Time Temperature Precipitation Wind Pressure Humidity
    00:00 +11°C° 0 mm 1 mps 693 mmHg 85%
    01:00 +10°C° 0 mm 1 mps 693 mmHg 85%
    02:00 +10°C° 0 mm 1 mps 693 mmHg 86%
    03:00 +10°C° 0 mm 1 mps 693 mmHg 86%
    04:00 +11°C° 0 mm 1 mps 693 mmHg 82%
    05:00 +13°C° 0 mm 1 mps 693 mmHg 78%
    06:00 +14°C° 0 mm 1 mps 693 mmHg 74%
    07:00 +16°C° 0 mm 1 mps 694 mmHg 64%
    08:00 +20°C° 0 mm 1 mps 694 mmHg 54%
    09:00 +22°C° 0 mm 1 mps 694 mmHg 44%
    10:00 +23°C° 0 mm 1 mps 694 mmHg 41%
    11:00 +24°C° 0 mm 2 mps 693 mmHg 38%
    12:00 +25°C° 0 mm 2 mps 693 mmHg 35%
    13:00 +25°C° 0 mm 2 mps 693 mmHg 36%
    14:00 +25°C° 0 mm 2 mps 692 mmHg 37%
    15:00 +25°C° 0 mm 2 mps 692 mmHg 38%
    16:00 +24°C° 0.1 mm 2 mps 692 mmHg 44%
    17:00 +23°C° 0.1 mm 2 mps 692 mmHg 51%
    18:00 +22°C° 0.1 mm 1 mps 692 mmHg 58%
    19:00 +19°C° 0.1 mm 1 mps 692 mmHg 66%
    20:00 +16°C° 0.1 mm 1 mps 692 mmHg 74%
    21:00 +13°C° 0.1 mm 1 mps 692 mmHg 82%
    22:00 +13°C° 0.2 mm 1 mps 692 mmHg 83%
    23:00 +13°C° 0.2 mm 1 mps 692 mmHg 85%

    27 May, Saturday

    Time Temperature Precipitation Wind Pressure Humidity
    00:00 +12°C° 0.2 mm 1 mps 692 mmHg 86%
    01:00 +12°C° 0.2 mm 1 mps 691 mmHg 87%
    02:00 +12°C° 0.2 mm 1 mps 691 mmHg 88%
    03:00 +12°C° 0.2 mm 1 mps 691 mmHg 89%
    04:00 +13°C° 0.2 mm 1 mps 691 mmHg 87%
    05:00 +14°C° 0.2 mm 1 mps 691 mmHg 85%
    06:00 +15°C° 0.2 mm 1 mps 691 mmHg 82%
    07:00 +18°C° 0 mm 1 mps 691 mmHg 72%
    08:00 +20°C° 0 mm 1 mps 691 mmHg 61%
    09:00 +22°C° 0 mm 1 mps 691 mmHg 51%
    10:00 +23°C° 0.3 mm 1 mps 691 mmHg 49%
    11:00 +24°C° 0.3 mm 2 mps 691 mmHg 47%
    12:00 +25°C° 0.3 mm 2 mps 690 mmHg 46%
    13:00 +25°C° 0.4 mm 2 mps 690 mmHg 47%
    14:00 +26°C° 0.4 mm 2 mps 689 mmHg 49%
    15:00 +26°C° 0.4 mm 2 mps 689 mmHg 51%
    16:00 +24°C° 0.6 mm 2 mps 689 mmHg 57%
    17:00 +23°C° 0.6 mm 1 mps 689 mmHg 63%
    18:00 +22°C° 0.6 mm 1 mps 688 mmHg 69%
    19:00 +20°C° 0.5 mm 1 mps 689 mmHg 74%
    20:00 +18°C° 0.5 mm 1 mps 689 mmHg 80%
    21:00 +15°C° 0.5 mm 1 mps 689 mmHg 85%
    22:00 +14°C° 0.1 mm 1 mps 689 mmHg 86%
    23:00 +13°C° 0.1 mm 1 mps 689 mmHg 87%

    28 May, Sunday

    Time Temperature Precipitation Wind Pressure Humidity
    00:00 +13°C° 0.1 mm 1 mps 689 mmHg 88%
    01:00 +13°C° 0 mm 1 mps 689 mmHg 86%
    02:00 +13°C° 0 mm 1 mps 689 mmHg 84%
    03:00 +13°C° 0 mm 1 mps 690 mmHg 83%
    04:00 +13°C° 0 mm 1 mps 690 mmHg 80%
    05:00 +14°C° 0 mm 1 mps 690 mmHg 77%
    06:00 +15°C° 0 mm 2 mps 691 mmHg 74%
    07:00 +19°C° 0 mm 1 mps 691 mmHg 63%
    08:00 +21°C° 0 mm 1 mps 691 mmHg 52%
    09:00 +24°C° 0 mm 1 mps 692 mmHg 41%
    10:00 +25°C° 0 mm 2 mps 691 mmHg 38%
    11:00 +27°C° 0 mm 2 mps 691 mmHg 35%
    12:00 +28°C° 0 mm 3 mps 691 mmHg 31%
    13:00 +28°C° 0 mm 3 mps 691 mmHg 30%
    14:00 +29°C° 0 mm 3 mps 690 mmHg 30%
    15:00 +29°C° 0 mm 3 mps 690 mmHg 29%
    16:00 +28°C° 0 mm 3 mps 690 mmHg 35%
    17:00 +27°C° 0 mm 2 mps 690 mmHg 42%
    18:00 +25°C° 0 mm 2 mps 690 mmHg 48%
    19:00 +23°C° 0 mm 2 mps 690 mmHg 51%
    20:00 +19°C° 0 mm 2 mps 690 mmHg 54%
    21:00 +17°C° 0 mm 2 mps 690 mmHg 57%
    22:00 +16°C° 0 mm 2 mps 690 mmHg 57%
    23:00 +16°C° 0 mm 2 mps 690 mmHg 57%

    29 May, Monday

    Time Temperature Precipitation Wind Pressure Humidity
    00:00 +15°C° 0 mm 2 mps 691 mmHg 58%
    01:00 +15°C° 0 mm 2 mps 691 mmHg 59%
    02:00 +14°C° 0 mm 2 mps 690 mmHg 60%
    03:00 +14°C° 0 mm 2 mps 690 mmHg 61%
    04:00 +14°C° 0 mm 2 mps 691 mmHg 62%
    05:00 +15°C° 0 mm 2 mps 691 mmHg 62%
    06:00 +15°C° 0 mm 2 mps 691 mmHg 62%
    07:00 +17°C° 0 mm 2 mps 692 mmHg 55%
    08:00 +20°C° 0 mm 2 mps 692 mmHg 48%
    09:00 +22°C° 0 mm 3 mps 692 mmHg 42%
    10:00 +24°C° 0.2 mm 3 mps 692 mmHg 42%
    11:00 +24°C° 0.2 mm 3 mps 692 mmHg 42%
    12:00 +25°C° 0.2 mm 4 mps 692 mmHg 42%
    13:00 +25°C° 0.7 mm 4 mps 692 mmHg 43%
    14:00 +25°C° 0.7 mm 4 mps 692 mmHg 45%
    15:00 +25°C° 0.7 mm 4 mps 692 mmHg 46%
    16:00 +24°C° 0.7 mm 3 mps 692 mmHg 55%
    17:00 +21°C° 0.7 mm 3 mps 692 mmHg 64%
    18:00 +19°C° 0.7 mm 3 mps 692 mmHg 73%
    19:00 +17°C° 0.4 mm 2 mps 693 mmHg 78%
    20:00 +15°C° 0.4 mm 2 mps 693 mmHg 82%
    21:00 +13°C° 0.4 mm 1 mps 694 mmHg 87%
    22:00 +13°C° 0.1 mm 1 mps 694 mmHg 88%
    23:00 +13°C° 0.1 mm 1 mps 695 mmHg 89%
    Show more